CWLEESTJE Weather Reports


Display with metric or nautical units.
time (UTC)temp
F
wind
direction
speed
MPH
gust
MPH
rain 1hr
in
rain 24hr
in
rain mn
in
humidity
%
barometer
mb
20260509104522 68 58 10.0 16.0 0.00 0.00 0.00 54
20260509103522 68 76 8.0 16.0 0.00 0.00 0.00 57
20260509102556 68 65 8.0 15.0 0.00 0.00 0.00 58
20260509101528 68 98 8.0 15.0 0.00 0.00 0.00 56
20260509100533 67 42 8.0 14.0 0.00 0.00 0.00 57
20260509095546 67 58 10.0 16.0 0.00 0.00 0.00 57
20260509094530 67 80 11.0 15.0 0.00 0.00 0.00 56
20260509093523 67 80 9.0 16.0 0.00 0.00 0.00 57
20260509092553 66 87 10.0 13.0 0.00 0.00 0.00 60
20260509091536 65 109 11.0 14.0 0.00 0.00 0.00 61
20260509090519 65 105 10.0 13.0 0.00 0.00 0.00 62
20260509085532 65 94 11.0 14.0 0.00 0.00 0.00 63
20260509084546 64 95 10.0 14.0 0.00 0.00 0.00 63
20260509083531 64 78 9.0 14.0 0.00 0.00 0.00 63
20260509082544 63 108 11.0 15.0 0.00 0.00 0.00 63
20260509081543 63 105 11.0 16.0 0.00 0.00 0.00 63
20260509080555 63 86 10.0 13.0 0.00 0.00 0.00 64
20260509075547 63 72 9.0 13.0 0.00 0.00 0.00 65
20260509074530 63 96 9.0 12.0 0.00 0.00 0.00 68
20260509073546 62 77 7.0 10.0 0.00 0.00 0.00 69
20260509072548 61 86 7.0 10.0 0.00 0.00 0.00 71
20260509071540 60 61 7.0 9.0 0.00 0.00 0.00 73
20260509070519 59 86 8.0 10.0 0.00 0.00 0.00 74
20260509065552 58 84 7.0 10.0 0.00 0.00 0.00 74
20260509064604 57 58 6.0 10.0 0.00 0.00 0.00 75
20260509063526 57 52 6.0 9.0 0.00 0.00 0.00 77
20260509062539 56 53 7.0 8.0 0.00 0.00 0.00 78
20260509061522 54 60 5.0 9.0 0.00 0.00 0.00 80
20260509060538 53 65 4.0 7.0 0.00 0.00 0.00 83
20260509055537 51 72 4.0 6.0 0.00 0.00 0.00 85
20260509054521 50 67 4.0 5.0 0.00 0.00 0.00 87
20260509053556 49 67 3.0 5.0 0.00 0.00 0.00 88
20260509052527 47 65 3.0 5.0 0.00 0.00 0.00 88
20260509051531 46 65 2.0 3.0 0.00 0.00 0.00 87
20260509050544 46 65 2.0 6.0 0.00 0.00 0.00 87
20260509045528 46 62 4.0 5.0 0.00 0.00 0.00 87
20260509044556 46 61 4.0 5.0 0.00 0.00 0.00 86
20260509043540 46 61 4.0 6.0 0.00 0.00 0.00 86
20260509042532 46 53 5.0 6.0 0.00 0.00 0.00 86
20260509041545 46 50 5.0 7.0 0.00 0.00 0.00 86
20260509040528 46 45 5.0 6.0 0.00 0.00 0.00 87
20260509035542 46 44 3.0 5.0 0.00 0.00 0.00 87
20260509034527 46 44 4.0 6.0 0.00 0.00 0.00 87
20260509033556 46 48 5.0 6.0 0.00 0.00 0.00 87
20260509032539 45 57 4.0 5.0 0.00 0.00 0.00 87
20260509031552 46 59 2.0 4.0 0.00 0.00 0.00 87
20260509030524 46 60 2.0 5.0 0.00 0.00 0.00 87
20260509025557 46 60 4.0 5.0 0.00 0.00 0.00 87
20260509024555 46 61 3.0 5.0 0.00 0.00 0.00 87
20260509023526 46 62 3.0 5.0 0.00 0.00 0.00 86
20260509022530 47 65 3.0 5.0 0.00 0.00 0.00 85
20260509021543 47 65 2.0 3.0 0.00 0.00 0.00 85
20260509020526 48 65 2.0 3.0 0.00 0.00 0.00 85
20260509015540 48 65 2.0 3.0 0.00 0.00 0.00 84
20260509014524 49 65 3.0 5.0 0.00 0.00 0.00 84
20260509013537 49 65 4.0 6.0 0.00 0.00 0.00 85
20260509012536 49 71 4.0 5.0 0.00 0.00 0.00 85
20260509011529 49 71 5.0 5.0 0.00 0.00 0.00 85
20260509010534 49 71 5.0 5.0 0.00 0.00 0.00 85
20260509005547 49 71 5.0 6.0 0.00 0.00 0.00 85
20260509004551 49 72 5.0 6.0 0.00 0.00 0.00 86
20260509003524 49 67 5.0 5.0 0.00 0.00 0.00 85
20260509002527 49 63 4.0 5.0 0.00 0.00 0.00 85
20260509001557 50 63 4.0 5.0 0.00 0.00 0.00 85
20260509000549 50 63 4.0 5.0 0.00 0.00 0.00 85
20260508235602 50 63 4.0 5.0 0.00 0.00 0.00 85
20260508234524 50 63 5.0 5.0 0.00 0.00 0.00 85
20260508233539 50 63 4.0 5.0 0.00 0.00 0.00 84
20260508232522 51 63 4.0 5.0 0.00 0.00 0.00 84
20260508231526 51 63 4.0 5.0 0.00 0.00 0.00 84
20260508230535 51 63 5.0 6.0 0.00 0.00 0.00 84
20260508225518 51 63 4.0 6.0 0.00 0.00 0.00 83
20260508224531 52 63 5.0 6.0 0.00 0.00 0.00 82
20260508223536 52 61 4.0 6.0 0.00 0.00 0.00 82
20260508222528 52 51 5.0 6.0 0.00 0.00 0.00 81
20260508221532 53 53 5.0 6.0 0.00 0.00 0.00 81
20260508220525 53 53 5.0 6.0 0.00 0.00 0.00 80
20260508215529 54 51 5.0 7.0 0.00 0.00 0.00 79
20260508214559 54 52 4.0 6.0 0.00 0.00 0.00 78
20260508213550 55 51 5.0 8.0 0.00 0.00 0.00 78
20260508212533 55 53 6.0 9.0 0.00 0.00 0.00 78
20260508211527 56 49 7.0 11.0 0.00 0.00 0.00 77
20260508210531 56 56 8.0 10.0 0.00 0.00 0.00 78
20260508205546 56 34 7.0 11.0 0.00 0.00 0.00 78
20260508204529 56 44 7.0 10.0 0.00 0.00 0.00 78
20260508203538 56 13 6.0 8.0 0.00 0.00 0.00 78
20260508202521 56 22 5.0 7.0 0.00 0.00 0.00 77
20260508201524 57 19 4.0 7.0 0.00 0.00 0.00 76
20260508200538 57 28 5.0 9.0 0.00 0.00 0.00 76
20260508195521 58 28 5.0 8.0 0.00 0.00 0.00 74
20260508194534 59 16 5.0 7.0 0.00 0.00 0.00 72
20260508193538 59 18 5.0 10.0 0.00 0.00 0.00 71
20260508192532 60 28 7.0 10.0 0.00 0.00 0.00 69
20260508191533 61 27 6.0 10.0 0.00 0.00 0.00 66
20260508190527 62 13 7.0 11.0 0.00 0.00 0.00 61
20260508185530 62 30 9.0 13.0 0.00 0.00 0.00 58
20260508184544 63 57 8.0 11.0 0.00 0.00 0.00 58
20260508183527 63 49 8.0 12.0 0.00 0.00 0.00 58
20260508182539 63 46 6.0 12.0 0.00 0.00 0.00 58
20260508181523 63 42 8.0 12.0 0.00 0.00 0.00 58
20260508180526 63 59 8.0 14.0 0.00 0.00 0.00 58
20260508175535 63 40 6.0 9.0 0.00 0.00 0.00 59
20260508174520 63 49 8.0 10.0 0.00 0.00 0.00 60
20260508173533 63 82 4.0 5.0 0.00 0.00 0.00 62
20260508172537 63 108 3.0 5.0 0.00 0.00 0.00 63
20260508171530 63 103 4.0 7.0 0.00 0.00 0.00 61
20260508170534 64 101 5.0 7.0 0.00 0.00 0.00 59
20260508165528 65 92 6.0 8.0 0.00 0.00 0.00 57
20260508164531 66 77 6.0 9.0 0.00 0.00 0.00 56
20260508163540 65 83 7.0 10.0 0.00 0.00 0.00 58
20260508162523 65 34 4.0 7.0 0.00 0.00 0.00 57
20260508161558 65 69 3.0 8.0 0.00 0.00 0.00 57
20260508160520 65 40 3.0 7.0 0.00 0.00 0.00 58
20260508155533 65 89 2.0 6.0 0.00 0.00 0.00 59
20260508154536 64 92 4.0 6.0 0.00 0.00 0.00 60
20260508153549 64 98 5.0 9.0 0.00 0.00 0.00 60
20260508152528 64 77 6.0 9.0 0.00 0.00 0.00 60
20260508151520 64 88 6.0 10.0 0.00 0.00 0.00 59
20260508150524 64 78 5.0 10.0 0.00 0.00 0.00 57
20260508145538 64 108 5.0 9.0 0.00 0.00 0.00 61
20260508144542 64 86 8.0 13.0 0.00 0.00 0.00 59
20260508143555 64 99 5.0 10.0 0.00 0.00 0.00 58
20260508142526 64 82 5.0 12.0 0.00 0.00 0.00 59
20260508141526 65 92 6.0 13.0 0.00 0.00 0.00 57
20260508140521 65 74 9.0 14.0 0.00 0.00 0.00 57
20260508135523 65 88 9.0 15.0 0.00 0.00 0.00 56
20260508134536 65 78 10.0 15.0 0.00 0.00 0.00 56
20260508133541 65 86 7.0 14.0 0.00 0.00 0.00 57
20260508132534 66 80 7.0 13.0 0.00 0.00 0.00 58
20260508131547 66 96 11.0 14.0 0.00 0.00 0.00 58
20260508130527 65 88 7.0 14.0 0.00 0.00 0.00 58
20260508125532 66 82 9.0 12.0 0.00 0.00 0.00 58
20260508124524 65 117 9.0 14.0 0.00 0.00 0.00 60
20260508123528 65 109 8.0 12.0 0.00 0.00 0.00 56
20260508122542 66 124 9.0 12.0 0.00 0.00 0.00 60
20260508121555 65 80 9.0 16.0 0.00 0.00 0.00 57
20260508120538 66 75 9.0 14.0 0.00 0.00 0.00 60
20260508115526 66 102 9.0 12.0 0.00 0.00 0.00 55
20260508114600 65 78 4.0 12.0 0.00 0.00 0.00 59
20260508113522 64 80 8.0 12.0 0.00 0.00 0.00 61
20260508112527 65 113 9.0 15.0 0.00 0.00 0.00 62
20260508111519 64 76 3.0 13.0 0.00 0.00 0.00 57
20260508110524 63 84 7.0 11.0 0.00 0.00 0.00 61
20260508105536 64 91 10.0 15.0 0.00 0.00 0.00 58